Flag for United Kingdom Weather past 2 weeks in Rotherham, England, United Kingdom

Now
58 °F

Refreshingly cool.


Feels Like: 58 °F
Forecast: 45 / 65 °F
Wind: 5 mph from Northwest

Location: Nottingham Weather Centre

Current Time: Aug 20, 2014 at 12:45:06 PM

Latest Report: Aug 20, 2014 at 12:00 PM


Visibility: 22 mi

Pressure: 30.02 "Hg

Humidity: 56%

Dew point: 42 °F

Location of RotherhamLocation

Historic Weather in Rotherham — Graph

°F

Rotherham temperature yesterday

Maximum temperature yesterday: 61 °F (at 3:00 PM)
Minimum temperature yesterday: 47 °F (at 6:00 AM)
Average temperature yesterday: 54 °F

Past Weeks' High & Low Weather Summary

 TemperatureHumidityPressure
High73 °F (Aug 8, 2:00 PM)100% (Aug 5, 3:00 PM)30.14 "Hg (Aug 5, 3:00 PM)
Low44 °F (Aug 20, 6:00 AM)44% (Aug 11, 5:00 PM)29.23 "Hg (Aug 10, 1:00 PM)
Average59 °F79%29.79 "Hg
* Reported Aug 5 11:00 AM — Aug 20 11:00 AM, Rotherham, Weather by CustomWeather, © 2014

Note: Actual official high and low records may vary slightly from our data, if they occured in-between our weather recording intervals... More about our weather records

Advertising

Rotherham weather history for previous 24 hours

 ConditionsComfort  
Time TempWeatherWind HumidityBarometerVisibility
11:00 AM
Aug 20
57 °FCool.5 mph66%30.01 "Hg19 mi
10:00 AM56 °FCool.8 mph73%30.01 "Hg17 mi
9:00 AM52 °FCool.8 mph85%30.01 "Hg16 mi
8:00 AM48 °FCool.6 mph94%30.01 "Hg14 mi
7:00 AM45 °FQuite cool.5 mph100%30.01 "Hg12 mi
6:00 AM44 °FQuite cool.7 mph100%30.01 "Hg10 mi
5:00 AM44 °FQuite cool.7 mph100%30.01 "Hg9 mi
4:00 AM45 °FCool.7 mph99%30.01 "Hg12 mi
3:00 AM46 °FCool.7 mph95%30.01 "Hg13 mi
2:00 AM47 °FCool.7 mph90%30.01 "Hg16 mi
1:00 AM48 °FCool.6 mph87%30.01 "Hg17 mi
12:00 AM49 °FCool.6 mph85%30.01 "Hg16 mi
11:00 PM
Aug 19
50 °FCool.3 mph77%30.00 "Hg17 mi
10:00 PM52 °FCool.5 mph69%29.99 "Hg19 mi
9:00 PM54 °FCool.5 mph62%29.98 "Hg22 mi
8:00 PM58 °FRefreshingly cool.6 mph55%29.96 "Hg25 mi
7:00 PM59 °FRefreshingly cool.5 mph54%29.94 "Hg22 mi
6:00 PM59 °FRefreshingly cool.6 mph51%29.93 "Hg22 mi
5:00 PM60 °FRefreshingly cool.7 mph47%29.92 "Hg25 mi
4:00 PM61 °FRefreshingly cool.8 mph45%29.91 "Hg25 mi
3:00 PM61 °FRefreshingly cool.7 mph47%29.90 "Hg22 mi
2:00 PM61 °FRefreshingly cool.10 mph48%29.90 "Hg22 mi
1:00 PM59 °FRefreshingly cool.10 mph52%29.90 "Hg22 mi
Weather by CustomWeather, © 2014

See weather overviewHow to use our weather pages